Lid_Strength_Index
2 3 4 6 12 12 15 13 12 12 12 10 10 10 9 9 9 12 5 2 1 1 0 0 -1 -2 -1 -2 -1 -1 -1 -1 -1 -1 -1 -1 -1 -1 -1 -1 -1 -1 -1 -2 -2 -2 -1 -1 -1
4 4 6 9 13 17 16 12 12 11 11 10 10 10 10 10 8 6 5 2 1 0 1 1 -1 -1 -1 -2 -1 -1 -1 -1 -1 -1 -1 -1 -1 -1 -1 -1 -1 -1 -1 -1 -2 -1 -2 -1 -1
4 5 8 12 15 17 15 13 13 12 11 11 10 9 9 10 8 7 4 2 2 1 1 1 -1 -1 -2 -2 -1 -1 -2 -1 -2 -2 -1 -1 -1 -1 -1 -1 -1 -2 -2 -2 -1 -0 0 0 0
6 8 10 12 14 13 13 12 13 12 10 11 9 10 9 8 7 6 4 2 2 3 2 0 -1 -1 -2 -2 -2 -2 -2 -1 -2 -1 -1 -2 -2 -2 -1 -1 -2 -1 -1 -0 0 1 1 1 1
8 10 14 15 15 13 12 11 12 12 12 12 11 11 11 9 7 6 3 2 2 3 3 1 -1 -1 -2 -2 -2 -2 -2 -2 -2 -1 -2 -2 -2 -1 -0 -0 -0 -0 0 1 1 1 1 1 1
10 11 14 16 15 13 11 11 12 12 12 12 11 11 10 10 8 6 3 3 3 3 3 1 0 -1 -1 -2 -2 -2 -1 -1 -1 -2 -2 -1 -1 -0 0 0 0 0 1 1 1 1 2 2 2
11 12 15 16 14 13 11 12 12 12 12 11 10 11 10 10 8 6 5 5 4 3 3 2 1 1 -1 -1 -1 -1 -2 -1 -2 -2 -1 -0 0 0 1 1 1 1 1 1 2 2 3 3 3
10 12 15 15 15 13 12 12 12 11 11 11 10 11 11 10 8 6 6 6 5 5 4 3 3 2 2 1 -0 -1 -1 -2 -2 -1 -0 0 0 1 1 1 1 1 2 3 3 4 4 4 5
11 14 16 14 14 12 12 12 11 11 10 10 10 10 10 10 8 7 8 8 7 6 5 4 4 4 4 4 2 0 -0 -1 -0 1 1 3 7 6 6 4 2 2 3 4 4 5 6 7 7
11 15 14 13 13 12 12 12 10 10 10 11 10 10 10 9 8 8 8 7 8 7 6 6 5 5 5 4 4 4 4 4 5 6 7 9 9 9 8 5 3 3 4 5 6 7 8 11 14
12 13 12 11 11 11 11 12 11 12 12 10 10 10 10 10 9 8 8 7 6 6 6 6 6 6 6 6 6 7 7 8 8 9 10 11 11 10 10 10 11 12 10 12 12 14 14 14 14
12 10 10 10 10 11 11 11 11 11 8 8 9 10 10 10 10 8 8 8 8 8 7 7 7 7 7 7 7 8 8 9 10 10 11 12 12 12 12 13 14 15 15 15 15 15 15 15 15
12 11 10 10 10 10 10 10 11 12 9 9 10 10 10 10 10 9 8 8 8 8 7 7 7 7 7 8 8 9 9 9 11 11 12 12 12 13 14 15 15 15 15 15 16 16 16 16 15
13 12 11 11 10 10 10 10 12 10 10 9 10 10 10 11 10 10 10 9 9 8 8 7 7 7 7 7 8 8 9 10 11 12 12 12 12 13 14 14 15 16 16 16 16 16 16 16 16
12 13 13 13 12 11 11 12 13 9 11 10 10 11 11 11 11 10 9 9 9 9 8 8 8 7 8 8 8 9 9 10 11 12 12 13 13 14 14 14 15 16 16 16 16 16 17 17 16
16 15 17 15 13 13 12 15 11 11 12 11 11 11 12 11 10 10 9 9 9 9 10 9 8 8 8 8 9 9 10 10 11 12 12 12 13 14 15 15 15 16 16 16 17 17 17 18 18
18 19 18 16 13 14 14 16 12 12 13 12 11 11 11 10 11 10 9 9 9 9 10 11 9 9 9 9 10 10 11 11 11 12 12 12 13 14 15 15 15 16 16 17 17 18 18 18 18
18 19 18 18 15 16 16 16 13 11 14 12 11 11 11 10 9 7 10 9 9 9 9 10 11 10 10 9 11 12 12 11 12 12 13 13 13 15 15 16 15 16 17 17 17 18 18 18 18
18 18 19 16 14 16 15 15 14 12 12 12 12 11 11 10 9 8 10 10 10 10 10 11 11 11 11 11 12 12 12 12 13 12 13 14 14 15 15 16 16 17 17 17 18 18 18 19 19
16 17 17 15 14 16 16 16 14 13 12 11 11 11 10 11 10 10 10 11 11 10 10 11 11 11 11 10 11 11 11 12 12 12 13 14 14 15 15 16 16 17 18 18 18 18 19 18 19
17 18 16 17 16 16 17 18 16 14 13 12 11 10 10 10 10 10 11 12 13 12 12 11 11 11 11 11 11 15 15 16 15 15 14 14 14 15 15 16 16 17 17 18 18 18 18 19 20
17 15 16 16 18 20 17 21 18 14 14 14 12 12 12 12 11 11 11 12 13 12 12 11 11 11 12 11 12 12 12 13 13 13 13 14 14 15 16 16 16 17 17 18 18 18 19 19 20
16 15 16 17 19 20 20 21 18 17 17 15 13 13 13 12 12 12 11 11 11 12 12 12 12 12 12 12 12 13 12 12 13 13 14 14 15 15 16 16 17 17 17 18 18 19 19 19 19
15 16 17 19 19 21 18 19 19 18 16 15 14 13 12 12 12 12 12 12 12 13 13 13 13 13 13 13 12 13 13 13 15 15 15 15 15 16 16 16 16 17 17 18 18 18 19 19 19
16 18 21 22 23 21 19 20 16 15 14 14 12 12 13 12 12 12 12 12 12 13 13 14 14 14 13 13 13 13 13 14 14 14 14 15 16 16 16 16 17 17 17 18 18 18 18 19 19
17 17 20 25 23 19 20 20 16 14 14 13 14 14 13 12 13 13 12 12 12 13 13 14 14 14 14 14 14 14 13 14 14 15 14 15 15 15 15 16 16 17 17 17 18 18 18 18 18
18 18 16 18 24 24 18 17 13 14 14 15 14 14 13 13 12 12 12 12 12 13 13 14 14 14 14 14 14 14 14 14 14 15 15 15 15 15 15 16 16 17 17 18 18 18 18 18 18
16 15 19 19 21 24 19 19 17 15 14 13 13 13 13 12 10 8 11 11 12 12 14 14 14 14 14 15 14 14 14 14 14 15 15 15 14 15 16 16 16 17 18 18 18 18 18 19 19
17 16 16 16 16 19 20 17 13 14 14 14 11 10 11 11 10 11 12 12 12 13 14 14 15 15 15 15 14 14 14 14 15 15 15 14 15 15 16 16 16 17 18 18 18 18 19 19 20
13 12 12 15 18 16 16 16 11 10 10 10 10 8 9 11 13 13 13 13 12 12 12 14 14 14 14 14 15 15 14 15 15 14 14 14 15 15 15 15 16 16 17 18 18 19 19 19 20